Time,TemperatureF,DewpointF,PressureIn,WindDirection,WindDirectionDegrees,WindSpeedMPH,WindSpeedGustMPH,Humidity,HourlyPrecipIn,Conditions,Clouds,dailyrainin,SolarRadiationWatts/m^2,SoftwareType,DateUTC
2013-06-07 00:00:00,74.3,62.2,29.62,SW,217,5.0,8.0,66,0.00,,SKC,0.00,0.00,VWS V14.01,2013-06-07 05:00:00,
2013-06-07 00:01:00,74.3,62.2,29.62,SW,217,4.0,8.0,66,0.00,,---,0.00,0.00,VWS V14.00,2013-06-07 05:01:00,
2013-06-07 00:06:00,74.1,62.5,29.62,SSW,211,5.0,8.0,67,0.00,,---,0.00,0.00,VWS V14.00,2013-06-07 05:06:00,
2013-06-07 00:10:00,74.0,62.4,29.62,SSW,205,4.0,10.0,67,0.00,,SKC,0.00,0.00,VWS V14.01,2013-06-07 05:10:00,
2013-06-07 00:11:00,74.0,62.4,29.62,SSW,205,4.0,10.0,67,0.00,,---,0.00,0.00,VWS V14.00,2013-06-07 05:11:00,
2013-06-07 00:16:00,73.9,62.3,29.62,SSW,205,5.0,7.0,67,0.00,,---,0.00,0.00,VWS V14.00,2013-06-07 05:16:00,
2013-06-07 00:20:00,73.8,62.6,29.62,SSW,205,4.0,8.0,68,0.00,,SKC,0.00,0.00,VWS V14.01,2013-06-07 05:20:00,
2013-06-07 00:21:00,73.8,62.6,29.62,SSW,205,4.0,8.0,68,0.00,,---,0.00,0.00,VWS V14.00,2013-06-07 05:21:00,
2013-06-07 00:26:00,73.7,62.5,29.63,SSW,205,2.0,8.0,68,0.00,,---,0.00,0.00,VWS V14.00,2013-06-07 05:26:00,
2013-06-07 00:30:00,73.6,62.4,29.62,SSW,205,2.0,8.0,68,0.00,,SKC,0.00,0.00,VWS V14.01,2013-06-07 05:30:00,
2013-06-07 00:31:00,73.6,62.4,29.62,SSW,205,2.0,8.0,68,0.00,,---,0.00,0.00,VWS V14.00,2013-06-07 05:31:00,
2013-06-07 00:36:00,73.5,62.7,29.63,SSW,205,4.0,7.0,69,0.00,,---,0.00,0.00,VWS V14.00,2013-06-07 05:36:00,
2013-06-07 00:40:00,73.4,62.6,29.62,SSW,205,4.0,8.0,69,0.00,,SKC,0.00,0.00,VWS V14.01,2013-06-07 05:40:00,
2013-06-07 00:41:00,73.4,62.6,29.62,SSW,205,4.0,8.0,69,0.00,,---,0.00,0.00,VWS V14.00,2013-06-07 05:41:00,
2013-06-07 00:47:00,73.3,62.9,29.62,SSW,201,3.0,8.0,70,0.00,,---,0.00,0.00,VWS V14.00,2013-06-07 05:47:00,
2013-06-07 00:50:00,73.2,62.8,29.62,SSW,201,4.0,8.0,70,0.00,,SKC,0.00,0.00,VWS V14.01,2013-06-07 05:50:00,
2013-06-07 00:52:00,73.1,62.7,29.62,SSW,201,3.0,3.0,70,0.00,,---,0.00,0.00,VWS V14.00,2013-06-07 05:52:00,
2013-06-07 00:57:00,73.0,62.7,29.62,SSW,201,3.0,6.0,70,0.00,,---,0.00,0.00,VWS V14.00,2013-06-07 05:57:00,
2013-06-07 01:00:00,72.9,63.0,29.62,SSW,201,2.0,6.0,71,0.00,,SKC,0.00,0.00,VWS V14.01,2013-06-07 06:00:00,
2013-06-07 01:02:00,72.8,62.9,29.63,SSW,201,1.0,2.0,71,0.00,,---,0.00,0.00,VWS V14.00,2013-06-07 06:02:00,
2013-06-07 01:07:00,72.7,62.8,29.62,SSW,201,5.0,6.0,71,0.00,,---,0.00,0.00,VWS V14.00,2013-06-07 06:07:00,
2013-06-07 01:10:00,72.6,63.1,29.62,SSW,201,3.0,7.0,72,0.00,,SKC,0.00,0.00,VWS V14.01,2013-06-07 06:10:00,
2013-06-07 01:12:00,72.6,63.1,29.62,SSW,201,3.0,3.0,72,0.00,,---,0.00,0.00,VWS V14.00,2013-06-07 06:12:00,
2013-06-07 01:17:00,72.4,62.9,29.63,SSW,201,5.0,6.0,72,0.00,,---,0.00,0.00,VWS V14.00,2013-06-07 06:17:00,
2013-06-07 01:20:00,72.4,62.9,29.63,SSW,201,0.0,6.0,72,0.00,,SKC,0.00,0.00,VWS V14.01,2013-06-07 06:20:00,
2013-06-07 01:22:00,72.4,62.9,29.63,SSW,201,0.0,0.0,72,0.00,,---,0.00,0.00,VWS V14.00,2013-06-07 06:22:00,
2013-06-07 01:27:00,72.3,63.2,29.63,SSW,201,3.0,5.0,73,0.00,,---,0.00,0.00,VWS V14.00,2013-06-07 06:27:00,
2013-06-07 01:30:00,72.2,63.1,29.63,SSW,201,3.0,6.0,73,0.00,,SKC,0.00,0.00,VWS V14.01,2013-06-07 06:30:00,
2013-06-07 01:32:00,72.2,63.1,29.63,SSW,201,5.0,5.0,73,0.00,,---,0.00,0.00,VWS V14.00,2013-06-07 06:32:00,
2013-06-07 01:37:00,72.1,63.0,29.63,SSW,201,2.0,7.0,73,0.00,,---,0.00,0.00,VWS V14.00,2013-06-07 06:37:00,
2013-06-07 01:40:00,72.0,63.3,29.63,SSW,201,4.0,8.0,74,0.00,,SKC,0.00,0.00,VWS V14.01,2013-06-07 06:40:00,
2013-06-07 01:42:00,72.0,63.3,29.63,SSW,201,4.0,4.0,74,0.00,,---,0.00,0.00,VWS V14.00,2013-06-07 06:42:00,
2013-06-07 01:47:00,72.0,63.3,29.63,SSW,201,2.0,6.0,74,0.00,,---,0.00,0.00,VWS V14.00,2013-06-07 06:47:00,
2013-06-07 01:50:00,71.9,63.2,29.62,SSW,201,2.0,6.0,74,0.00,,SKC,0.00,0.00,VWS V14.01,2013-06-07 06:50:00,
2013-06-07 01:52:00,71.9,63.2,29.63,SSW,201,4.0,4.0,74,0.00,,---,0.00,0.00,VWS V14.00,2013-06-07 06:52:00,
2013-06-07 01:57:00,71.8,63.1,29.62,SSW,201,5.0,7.0,74,0.00,,---,0.00,0.00,VWS V14.00,2013-06-07 06:57:00,
2013-06-07 02:00:00,71.7,63.0,29.62,SSW,201,4.0,7.0,74,0.00,,SKC,0.00,0.00,VWS V14.01,2013-06-07 07:00:00,
2013-06-07 02:02:00,71.7,63.0,29.61,SSW,201,5.0,5.0,74,0.00,,---,0.00,0.00,VWS V14.00,2013-06-07 07:02:00,
2013-06-07 02:07:00,71.5,63.2,29.63,SSW,201,2.0,6.0,75,0.00,,---,0.00,0.00,VWS V14.00,2013-06-07 07:07:00,
2013-06-07 02:10:00,71.3,63.0,29.63,SSW,201,2.0,6.0,75,0.00,,SKC,0.00,0.00,VWS V14.01,2013-06-07 07:10:00,
2013-06-07 02:12:00,71.4,63.1,29.63,SSW,201,2.0,2.0,75,0.00,,---,0.00,0.00,VWS V14.00,2013-06-07 07:12:00,
2013-06-07 02:17:00,71.2,62.9,29.63,SSW,201,6.0,7.0,75,0.00,,---,0.00,0.00,VWS V14.00,2013-06-07 07:17:00,
2013-06-07 02:20:00,71.0,62.7,29.63,SSW,201,4.0,8.0,75,0.00,,SKC,0.00,0.00,VWS V14.01,2013-06-07 07:20:00,
2013-06-07 02:22:00,71.0,62.7,29.63,SSW,201,4.0,4.0,75,0.00,,---,0.00,0.00,VWS V14.00,2013-06-07 07:22:00,
2013-06-07 02:27:00,70.8,62.5,29.64,SSW,201,2.0,7.0,75,0.00,,---,0.00,0.00,VWS V14.00,2013-06-07 07:27:00,
2013-06-07 02:30:00,70.8,62.9,29.63,SSW,201,2.0,7.0,76,0.00,,SKC,0.00,0.00,VWS V14.01,2013-06-07 07:30:00,
2013-06-07 02:32:00,70.7,62.8,29.64,SSW,202,4.0,4.0,76,0.00,,---,0.00,0.00,VWS V14.00,2013-06-07 07:32:00,
2013-06-07 02:37:00,70.7,62.8,29.63,SSW,201,0.0,6.0,76,0.00,,---,0.00,0.00,VWS V14.00,2013-06-07 07:37:00,
2013-06-07 02:40:00,70.6,62.7,29.63,SSW,201,4.0,6.0,76,0.00,,SKC,0.00,0.00,VWS V14.01,2013-06-07 07:40:00,
2013-06-07 02:42:00,70.7,62.8,29.63,SSW,201,1.0,3.0,76,0.00,,---,0.00,0.00,VWS V14.00,2013-06-07 07:42:00,
2013-06-07 02:47:00,70.6,62.7,29.63,SSW,201,5.0,9.0,76,0.00,,---,0.00,0.00,VWS V14.00,2013-06-07 07:47:00,
2013-06-07 02:50:00,70.5,62.6,29.63,SSW,201,6.0,9.0,76,0.00,,SKC,0.00,0.00,VWS V14.01,2013-06-07 07:50:00,
2013-06-07 02:52:00,70.5,62.6,29.63,SSW,201,3.0,5.0,76,0.00,,---,0.00,0.00,VWS V14.00,2013-06-07 07:52:00,
2013-06-07 02:57:00,70.4,62.5,29.63,SSW,201,4.0,9.0,76,0.00,,---,0.00,0.00,VWS V14.00,2013-06-07 07:57:00,
2013-06-07 03:00:00,70.3,62.4,29.63,SSW,201,5.0,9.0,76,0.00,,SKC,0.00,0.00,VWS V14.01,2013-06-07 08:00:00,
2013-06-07 03:02:00,70.3,62.4,29.63,SSW,201,4.0,6.0,76,0.00,,---,0.00,0.00,VWS V14.00,2013-06-07 08:02:00,
2013-06-07 03:07:00,70.2,62.7,29.64,SSW,201,3.0,6.0,77,0.00,,---,0.00,0.00,VWS V14.00,2013-06-07 08:07:00,
2013-06-07 03:10:00,70.3,62.8,29.63,SSW,201,5.0,6.0,77,0.00,,SKC,0.00,0.00,VWS V14.01,2013-06-07 08:10:00,
2013-06-07 03:12:00,70.2,62.7,29.64,SSW,201,5.0,7.0,77,0.00,,---,0.00,0.00,VWS V14.00,2013-06-07 08:12:00,
2013-06-07 03:17:00,70.2,62.7,29.63,SSW,201,0.0,7.0,77,0.00,,---,0.00,0.00,VWS V14.00,2013-06-07 08:17:00,
2013-06-07 03:20:00,70.2,62.7,29.63,SSW,201,3.0,7.0,77,0.00,,SKC,0.00,0.00,VWS V14.01,2013-06-07 08:20:00,
2013-06-07 03:22:00,70.2,62.7,29.63,SSW,201,2.0,3.0,77,0.00,,---,0.00,0.00,VWS V14.00,2013-06-07 08:22:00,
2013-06-07 03:27:00,70.1,62.6,29.63,SSW,201,0.0,3.0,77,0.00,,---,0.00,0.00,VWS V14.00,2013-06-07 08:27:00,
2013-06-07 03:30:00,70.1,62.6,29.63,SSW,201,0.0,3.0,77,0.00,,SKC,0.00,0.00,VWS V14.01,2013-06-07 08:30:00,
2013-06-07 03:32:00,70.0,62.5,29.64,SSW,201,0.0,0.0,77,0.00,,---,0.00,0.00,VWS V14.00,2013-06-07 08:32:00,
2013-06-07 03:37:00,70.0,62.5,29.64,SSW,201,2.0,3.0,77,0.00,,---,0.00,0.00,VWS V14.00,2013-06-07 08:37:00,
2013-06-07 03:40:00,69.9,62.4,29.63,SSW,201,2.0,4.0,77,0.00,,SKC,0.00,0.00,VWS V14.01,2013-06-07 08:40:00,
2013-06-07 03:42:00,69.9,62.4,29.63,SSW,201,3.0,3.0,77,0.00,,---,0.00,0.00,VWS V14.00,2013-06-07 08:42:00,
2013-06-07 03:47:00,69.8,62.6,29.63,SSW,201,4.0,5.0,78,0.00,,---,0.00,0.00,VWS V14.00,2013-06-07 08:47:00,
2013-06-07 03:50:00,69.7,62.5,29.63,SSW,201,0.0,5.0,78,0.00,,SKC,0.00,0.00,VWS V14.01,2013-06-07 08:50:00,
2013-06-07 03:52:00,69.7,62.5,29.63,SSW,201,1.0,1.0,78,0.00,,---,0.00,0.00,VWS V14.00,2013-06-07 08:52:00,
2013-06-07 03:57:00,69.7,62.5,29.63,SSW,201,0.0,3.0,78,0.00,,---,0.00,0.00,VWS V14.00,2013-06-07 08:57:00,
2013-06-07 04:00:00,69.6,62.4,29.63,SSW,201,2.0,5.0,78,0.00,,SKC,0.00,0.00,VWS V14.01,2013-06-07 09:00:00,
2013-06-07 04:02:00,69.6,62.4,29.63,SSW,201,1.0,3.0,78,0.00,,---,0.00,0.00,VWS V14.00,2013-06-07 09:02:00,
2013-06-07 04:07:00,69.6,62.8,29.62,SSW,201,3.0,5.0,79,0.00,,---,0.00,0.00,VWS V14.00,2013-06-07 09:07:00,
2013-06-07 04:10:00,69.5,62.7,29.62,SSW,201,3.0,6.0,79,0.00,,SKC,0.00,0.00,VWS V14.01,2013-06-07 09:10:00,
2013-06-07 04:12:00,69.5,62.7,29.62,SSW,201,3.0,4.0,79,0.00,,---,0.00,0.00,VWS V14.00,2013-06-07 09:12:00,
2013-06-07 04:17:00,69.5,62.7,29.62,SSW,201,2.0,6.0,79,0.00,,---,0.00,0.00,VWS V14.00,2013-06-07 09:17:00,
2013-06-07 04:20:00,69.4,62.6,29.61,SSW,201,2.0,6.0,79,0.00,,SKC,0.00,0.00,VWS V14.01,2013-06-07 09:20:00,
2013-06-07 04:22:00,69.4,62.6,29.61,SSW,201,4.0,4.0,79,0.00,,---,0.00,0.00,VWS V14.00,2013-06-07 09:22:00,
2013-06-07 04:27:00,69.3,62.5,29.61,SSW,201,4.0,5.0,79,0.00,,---,0.00,0.00,VWS V14.00,2013-06-07 09:27:00,
2013-06-07 04:30:00,69.3,62.5,29.61,SSW,201,2.0,5.0,79,0.00,,SKC,0.00,0.00,VWS V14.01,2013-06-07 09:30:00,
2013-06-07 04:32:00,69.2,62.4,29.61,SSW,201,3.0,4.0,79,0.00,,---,0.00,0.00,VWS V14.00,2013-06-07 09:32:00,
2013-06-07 04:37:00,69.2,62.4,29.62,SSW,201,0.0,4.0,79,0.00,,---,0.00,0.00,VWS V14.00,2013-06-07 09:37:00,
2013-06-07 04:40:00,69.1,62.7,29.62,SSW,201,2.0,4.0,80,0.00,,SKC,0.00,0.00,VWS V14.01,2013-06-07 09:40:00,
2013-06-07 04:42:00,69.2,62.8,29.62,SSW,201,2.0,2.0,80,0.00,,---,0.00,0.00,VWS V14.00,2013-06-07 09:42:00,
2013-06-07 04:47:00,69.1,62.7,29.62,SSW,201,0.0,5.0,80,0.00,,---,0.00,0.00,VWS V14.00,2013-06-07 09:47:00,
2013-06-07 04:50:00,69.0,62.6,29.62,SSW,201,2.0,5.0,80,0.00,,SKC,0.00,0.00,VWS V14.01,2013-06-07 09:50:00,
2013-06-07 04:52:00,69.0,62.6,29.62,SSW,201,3.0,4.0,80,0.00,,---,0.00,0.00,VWS V14.00,2013-06-07 09:52:00,
2013-06-07 04:57:00,69.0,62.6,29.62,SSW,201,2.0,4.0,80,0.00,,---,0.00,0.00,VWS V14.00,2013-06-07 09:57:00,
2013-06-07 05:00:00,68.9,62.8,29.62,SSW,201,4.0,7.0,81,0.00,,SKC,0.00,0.00,VWS V14.01,2013-06-07 10:00:00,
2013-06-07 05:02:00,68.9,62.8,29.62,SSW,201,2.0,3.0,81,0.00,,---,0.00,0.00,VWS V14.00,2013-06-07 10:02:00,
2013-06-07 05:07:00,68.8,62.7,29.62,SSW,201,0.0,6.0,81,0.00,,---,0.00,0.00,VWS V14.00,2013-06-07 10:07:00,
2013-06-07 05:10:00,68.8,62.7,29.63,SSW,201,0.0,6.0,81,0.00,,SKC,0.00,0.00,VWS V14.01,2013-06-07 10:10:00,
2013-06-07 05:12:00,68.8,62.7,29.63,SSW,201,0.0,0.0,81,0.00,,---,0.00,0.00,VWS V14.00,2013-06-07 10:12:00,
2013-06-07 05:17:00,68.9,62.8,29.63,SSW,201,0.0,0.0,81,0.00,,---,0.00,0.00,VWS V14.00,2013-06-07 10:17:00,
2013-06-07 05:20:00,68.9,62.8,29.63,SSW,201,0.0,0.0,81,0.00,,SKC,0.00,0.00,VWS V14.01,2013-06-07 10:20:00,
2013-06-07 05:22:00,68.9,62.8,29.63,SSW,201,0.0,0.0,81,0.00,,---,0.00,0.00,VWS V14.00,2013-06-07 10:22:00,
2013-06-07 05:27:00,68.9,62.8,29.63,SSW,201,0.0,1.0,81,0.00,,---,0.00,0.00,VWS V14.00,2013-06-07 10:27:00,
2013-06-07 05:30:00,68.9,62.8,29.62,SSW,201,0.0,1.0,81,0.00,,SKC,0.00,0.00,VWS V14.01,2013-06-07 10:30:00,
2013-06-07 05:32:00,68.9,62.8,29.62,SSW,201,0.0,0.0,81,0.00,,---,0.00,0.00,VWS V14.00,2013-06-07 10:32:00,
2013-06-07 05:37:00,68.9,62.8,29.62,SSW,201,1.0,2.0,81,0.00,,---,0.00,0.00,VWS V14.00,2013-06-07 10:37:00,
2013-06-07 05:40:00,68.8,62.7,29.61,SSW,201,0.0,5.0,81,0.00,,SKC,0.00,0.00,VWS V14.01,2013-06-07 10:40:00,
2013-06-07 05:42:00,68.8,62.7,29.61,SSW,201,4.0,4.0,81,0.00,,---,0.00,0.00,VWS V14.00,2013-06-07 10:42:00,
2013-06-07 05:47:00,68.7,62.6,29.61,SSW,201,3.0,6.0,81,0.00,,---,0.00,0.00,VWS V14.00,2013-06-07 10:47:00,
2013-06-07 05:50:00,68.7,63.0,29.61,SSW,201,6.0,7.0,82,0.00,,SKC,0.00,0.00,VWS V14.01,2013-06-07 10:50:00,
2013-06-07 05:52:00,68.7,63.0,29.61,SSW,201,6.0,6.0,82,0.00,,---,0.00,0.00,VWS V14.00,2013-06-07 10:52:00,
2013-06-07 05:57:00,68.6,62.9,29.62,SSW,201,4.0,6.0,82,0.00,,---,0.00,0.00,VWS V14.00,2013-06-07 10:57:00,
2013-06-07 06:00:00,68.6,62.9,29.62,SSW,201,3.0,6.0,82,0.00,,SKC,0.00,0.00,VWS V14.01,2013-06-07 11:00:00,
2013-06-07 06:02:00,68.6,62.9,29.62,SSW,201,2.0,3.0,82,0.00,,---,0.00,0.00,VWS V14.00,2013-06-07 11:02:00,
2013-06-07 06:07:00,68.6,62.9,29.62,SSW,201,3.0,6.0,82,0.00,,---,0.00,0.00,VWS V14.00,2013-06-07 11:07:00,
2013-06-07 06:10:00,68.6,62.9,29.62,SSW,201,3.0,6.0,82,0.00,,SKC,0.00,0.00,VWS V14.01,2013-06-07 11:10:00,
2013-06-07 06:12:00,68.6,62.9,29.62,SSW,201,4.0,5.0,82,0.00,,---,0.00,0.00,VWS V14.00,2013-06-07 11:12:00,
2013-06-07 06:17:00,68.6,62.9,29.62,SSW,201,4.0,7.0,82,0.00,,---,0.00,0.00,VWS V14.00,2013-06-07 11:17:00,
2013-06-07 06:20:00,68.7,63.0,29.63,SSW,201,3.0,7.0,82,0.00,,SKC,0.00,0.00,VWS V14.01,2013-06-07 11:20:00,
2013-06-07 06:22:00,68.7,63.0,29.63,SSW,201,7.0,7.0,82,0.00,,---,0.00,0.00,VWS V14.00,2013-06-07 11:22:00,
2013-06-07 06:27:00,68.6,62.9,29.63,SSW,201,0.0,7.0,82,0.00,,---,0.00,0.00,VWS V14.00,2013-06-07 11:27:00,
2013-06-07 06:30:00,68.6,63.2,29.63,SSW,201,0.0,7.0,83,0.00,,SKC,0.00,0.00,VWS V14.01,2013-06-07 11:30:00,
2013-06-07 06:32:00,68.6,63.2,29.63,SSW,201,0.0,0.0,83,0.00,,---,0.00,0.00,VWS V14.00,2013-06-07 11:32:00,
2013-06-07 06:37:00,68.5,63.1,29.63,SSW,201,4.0,7.0,83,0.00,,---,0.00,5.00,VWS V14.00,2013-06-07 11:37:00,
2013-06-07 06:40:00,68.5,63.1,29.63,SSW,201,2.0,7.0,83,0.00,,SKC,0.00,7.00,VWS V14.01,2013-06-07 11:40:00,
2013-06-07 06:42:00,68.5,63.1,29.64,SSW,201,5.0,5.0,83,0.00,,---,0.00,9.00,VWS V14.00,2013-06-07 11:42:00,
2013-06-07 06:47:00,68.4,63.0,29.64,SSW,201,5.0,7.0,83,0.00,,---,0.00,11.00,VWS V14.00,2013-06-07 11:47:00,
2013-06-07 06:50:00,68.3,62.9,29.64,SSW,201,3.0,7.0,83,0.00,,SKC,0.00,16.00,VWS V14.01,2013-06-07 11:50:00,
2013-06-07 06:52:00,68.3,62.9,29.64,SSW,201,4.0,4.0,83,0.00,,---,0.00,16.00,VWS V14.00,2013-06-07 11:52:00,
2013-06-07 06:57:00,68.2,62.8,29.64,SSW,201,3.0,6.0,83,0.00,,---,0.00,25.00,VWS V14.00,2013-06-07 11:57:00,
2013-06-07 07:00:00,68.1,62.8,29.64,SSW,201,5.0,6.0,83,0.00,,SKC,0.00,26.00,VWS V14.01,2013-06-07 12:00:00,
2013-06-07 07:02:00,68.1,62.8,29.64,SSW,201,4.0,6.0,83,0.00,,---,0.00,26.00,VWS V14.00,2013-06-07 12:02:00,
2013-06-07 07:07:00,68.0,63.0,29.63,SSW,201,8.0,10.0,84,0.00,,---,0.00,25.00,VWS V14.00,2013-06-07 12:07:00,
2013-06-07 07:10:00,67.8,62.8,29.63,SSW,201,4.0,10.0,84,0.00,,SKC,0.00,25.00,VWS V14.01,2013-06-07 12:10:00,
2013-06-07 07:12:00,67.8,62.8,29.63,SSW,201,5.0,6.0,84,0.00,,---,0.00,23.00,VWS V14.00,2013-06-07 12:12:00,
2013-06-07 07:17:00,67.7,63.0,29.63,SSW,201,2.0,9.0,85,0.00,,---,0.00,26.00,VWS V14.00,2013-06-07 12:17:00,
2013-06-07 07:20:00,67.6,62.9,29.64,SSW,201,5.0,9.0,85,0.00,,SKC,0.00,33.00,VWS V14.01,2013-06-07 12:20:00,
2013-06-07 07:22:00,67.6,62.9,29.64,SSW,201,3.0,5.0,85,0.00,,---,0.00,33.00,VWS V14.00,2013-06-07 12:22:00,
2013-06-07 07:27:00,67.5,62.8,29.64,SSW,201,2.0,8.0,85,0.00,,---,0.00,37.00,VWS V14.00,2013-06-07 12:27:00,
2013-06-07 07:30:00,67.4,62.7,29.64,SSW,201,7.0,8.0,85,0.00,,SKC,0.00,40.00,VWS V14.01,2013-06-07 12:30:00,
2013-06-07 07:32:00,67.5,62.8,29.64,SSW,201,6.0,8.0,85,0.00,,---,0.00,40.00,VWS V14.00,2013-06-07 12:32:00,
2013-06-07 07:37:00,67.3,62.6,29.64,SSW,201,4.0,9.0,85,0.00,,---,0.00,49.00,VWS V14.00,2013-06-07 12:37:00,
2013-06-07 07:40:00,67.2,62.5,29.65,SSW,201,4.0,11.0,85,0.00,,SKC,0.00,62.00,VWS V14.01,2013-06-07 12:40:00,
2013-06-07 07:42:00,67.2,62.5,29.65,SSW,201,5.0,11.0,85,0.00,,---,0.00,63.00,VWS V14.00,2013-06-07 12:42:00,
2013-06-07 07:47:00,67.2,62.5,29.65,SSW,201,7.0,11.0,85,0.00,,---,0.00,79.00,VWS V14.00,2013-06-07 12:47:00,
2013-06-07 07:50:00,67.2,62.5,29.65,SSW,201,7.0,11.0,85,0.00,,SKC,0.00,91.00,VWS V14.01,2013-06-07 12:50:00,
2013-06-07 07:52:00,67.2,62.2,29.65,SSW,201,6.0,8.0,84,0.00,,---,0.00,95.00,VWS V14.00,2013-06-07 12:52:00,
2013-06-07 07:57:00,67.2,62.2,29.65,SSW,200,5.0,9.0,84,0.00,,---,0.00,105.00,VWS V14.00,2013-06-07 12:57:00,
2013-06-07 08:00:00,67.3,62.3,29.65,SSW,200,5.0,9.0,84,0.00,,SKC,0.00,116.00,VWS V14.01,2013-06-07 13:00:00,
2013-06-07 08:02:00,67.3,62.3,29.65,SSW,200,6.0,8.0,84,0.00,,---,0.00,116.00,VWS V14.00,2013-06-07 13:02:00,
2013-06-07 08:07:00,67.4,62.4,29.66,SSW,200,5.0,9.0,84,0.00,,---,0.00,123.00,VWS V14.00,2013-06-07 13:07:00,
2013-06-07 08:10:00,67.5,62.5,29.67,SSW,198,6.0,9.0,84,0.00,,SKC,0.00,128.00,VWS V14.01,2013-06-07 13:10:00,
2013-06-07 08:12:00,67.5,62.5,29.67,SSW,198,4.0,6.0,84,0.00,,---,0.00,130.00,VWS V14.00,2013-06-07 13:12:00,
2013-06-07 08:17:00,67.6,62.6,29.68,SSW,198,2.0,7.0,84,0.00,,---,0.00,137.00,VWS V14.00,2013-06-07 13:17:00,
2013-06-07 08:20:00,67.7,62.7,29.68,SSW,198,2.0,7.0,84,0.00,,SKC,0.00,141.00,VWS V14.01,2013-06-07 13:20:00,
2013-06-07 08:22:00,67.7,62.7,29.68,SSW,198,4.0,6.0,84,0.00,,---,0.00,141.00,VWS V14.00,2013-06-07 13:22:00,
2013-06-07 08:27:00,67.9,62.5,29.68,SSW,198,3.0,7.0,83,0.00,,---,0.00,135.00,VWS V14.00,2013-06-07 13:27:00,
2013-06-07 08:30:00,68.0,62.7,29.69,SSW,198,5.0,7.0,83,0.00,,SKC,0.00,121.00,VWS V14.01,2013-06-07 13:30:00,
2013-06-07 08:32:00,68.0,62.7,29.69,SSW,198,4.0,6.0,83,0.00,,---,0.00,121.00,VWS V14.00,2013-06-07 13:32:00,
2013-06-07 08:37:00,68.1,62.4,29.69,SSW,198,6.0,9.0,82,0.00,,---,0.00,104.00,VWS V14.00,2013-06-07 13:37:00,
2013-06-07 08:40:00,68.1,62.4,29.70,SSW,198,0.0,9.0,82,0.00,,SKC,0.00,67.00,VWS V14.01,2013-06-07 13:40:00,
2013-06-07 08:42:00,68.1,62.4,29.70,SSW,198,3.0,3.0,82,0.00,,---,0.00,58.00,VWS V14.00,2013-06-07 13:42:00,
2013-06-07 08:47:00,68.3,62.6,29.72,SSW,198,0.0,4.0,82,0.00,,---,0.00,47.00,VWS V14.00,2013-06-07 13:47:00,
2013-06-07 08:50:00,68.3,62.2,29.72,SSW,198,1.0,5.0,81,0.00,,SKC,0.00,58.00,VWS V14.01,2013-06-07 13:50:00,
2013-06-07 08:52:00,68.3,62.2,29.72,SSW,198,5.0,5.0,81,0.00,,---,0.00,62.00,VWS V14.00,2013-06-07 13:52:00,
2013-06-07 08:57:00,68.3,62.2,29.73,SSW,198,5.0,6.0,81,0.00,,---,0.00,77.00,VWS V14.00,2013-06-07 13:57:00,
2013-06-07 09:00:00,68.4,62.0,29.74,SSW,198,3.0,6.0,80,0.00,,SKC,0.00,79.00,VWS V14.01,2013-06-07 14:00:00,
2013-06-07 09:02:00,68.4,62.0,29.74,SSW,198,2.0,4.0,80,0.00,,---,0.00,79.00,VWS V14.00,2013-06-07 14:02:00,
2013-06-07 09:07:00,68.4,61.6,29.74,SSW,198,3.0,4.0,79,0.00,,---,0.00,77.00,VWS V14.00,2013-06-07 14:07:00,
2013-06-07 09:10:00,68.5,61.7,29.75,SSW,198,2.0,5.0,79,0.00,,SKC,0.00,72.00,VWS V14.01,2013-06-07 14:10:00,
2013-06-07 09:12:00,68.5,61.7,29.75,SSW,198,3.0,4.0,79,0.00,,---,0.00,72.00,VWS V14.00,2013-06-07 14:12:00,
2013-06-07 09:17:00,68.5,61.4,29.75,SSW,198,3.0,7.0,78,0.00,,---,0.00,70.00,VWS V14.00,2013-06-07 14:17:00,
2013-06-07 09:20:00,68.5,61.0,29.75,SSW,198,4.0,8.0,77,0.00,,SKC,0.00,67.00,VWS V14.01,2013-06-07 14:20:00,
2013-06-07 09:22:00,68.5,61.0,29.75,SSW,198,3.0,4.0,77,0.00,,---,0.00,67.00,VWS V14.00,2013-06-07 14:22:00,
2013-06-07 09:27:00,68.5,61.0,29.75,SSW,198,2.0,5.0,77,0.00,,---,0.00,65.00,VWS V14.00,2013-06-07 14:27:00,
2013-06-07 09:30:00,68.5,61.4,29.74,SSW,198,4.0,5.0,78,0.00,,SKC,0.00,65.00,VWS V14.01,2013-06-07 14:30:00,
2013-06-07 09:32:00,68.5,61.4,29.74,SSW,198,3.0,6.0,78,0.00,,---,0.00,65.00,VWS V14.00,2013-06-07 14:32:00,
2013-06-07 09:37:00,68.5,61.0,29.74,SSW,198,2.0,6.0,77,0.00,,---,0.00,67.00,VWS V14.00,2013-06-07 14:37:00,
2013-06-07 09:40:00,68.5,61.0,29.74,SSW,198,3.0,6.0,77,0.00,,SKC,0.00,69.00,VWS V14.01,2013-06-07 14:40:00,
2013-06-07 09:42:00,68.5,61.0,29.74,SSW,198,2.0,4.0,77,0.00,,---,0.00,69.00,VWS V14.00,2013-06-07 14:42:00,
2013-06-07 09:47:00,68.4,61.3,29.74,SSW,198,2.0,6.0,78,0.00,,---,0.00,72.00,VWS V14.00,2013-06-07 14:47:00,
2013-06-07 09:50:00,68.4,61.3,29.74,SSW,198,0.0,6.0,78,0.00,,SKC,0.00,72.00,VWS V14.01,2013-06-07 14:50:00,
2013-06-07 09:52:00,68.4,61.3,29.74,SSW,198,3.0,4.0,78,0.00,,---,0.00,72.00,VWS V14.00,2013-06-07 14:52:00,
2013-06-07 09:57:00,68.5,61.7,29.74,SSW,198,4.0,5.0,79,0.00,,---,0.00,74.00,VWS V14.00,2013-06-07 14:57:00,
2013-06-07 10:00:00,68.5,61.7,29.74,SSW,198,2.0,6.0,79,0.00,,SKC,0.00,76.00,VWS V14.01,2013-06-07 15:00:00,
2013-06-07 10:02:00,68.5,61.7,29.74,SSW,198,2.0,2.0,79,0.00,,---,0.00,76.00,VWS V14.00,2013-06-07 15:02:00,
2013-06-07 10:07:00,68.4,61.6,29.74,SSW,198,3.0,3.0,79,0.00,,---,0.00,79.00,VWS V14.00,2013-06-07 15:07:00,
2013-06-07 10:10:00,68.5,61.7,29.74,SSW,198,0.0,3.0,79,0.00,,SKC,0.00,84.00,VWS V14.01,2013-06-07 15:10:00,
2013-06-07 10:12:00,68.5,61.7,29.74,SSW,198,0.0,0.0,79,0.00,,---,0.00,86.00,VWS V14.00,2013-06-07 15:12:00,
2013-06-07 10:17:00,68.5,61.7,29.74,SSW,198,2.0,3.0,79,0.00,,---,0.00,91.00,VWS V14.00,2013-06-07 15:17:00,
2013-06-07 10:20:00,68.5,61.7,29.74,SSW,198,2.0,3.0,79,0.00,,SKC,0.00,93.00,VWS V14.01,2013-06-07 15:20:00,
2013-06-07 10:22:00,68.6,61.8,29.74,SSW,198,1.0,2.0,79,0.00,,---,0.00,93.00,VWS V14.00,2013-06-07 15:22:00,
2013-06-07 10:27:00,68.6,61.8,29.74,SSW,198,3.0,4.0,79,0.00,,---,0.00,91.00,VWS V14.00,2013-06-07 15:27:00,
2013-06-07 10:30:00,68.6,61.8,29.74,SSW,198,1.0,4.0,79,0.00,,SKC,0.00,90.00,VWS V14.01,2013-06-07 15:30:00,
2013-06-07 10:32:00,68.6,61.8,29.74,SSW,198,1.0,1.0,79,0.00,,---,0.00,88.00,VWS V14.00,2013-06-07 15:32:00,
2013-06-07 10:37:00,68.6,61.8,29.73,SSW,198,1.0,3.0,79,0.00,,---,0.00,90.00,VWS V14.00,2013-06-07 15:37:00,
2013-06-07 10:40:00,68.6,62.2,29.72,SSW,198,3.0,3.0,80,0.00,,SKC,0.00,93.00,VWS V14.01,2013-06-07 15:40:00,
2013-06-07 10:42:00,68.6,62.2,29.72,SSW,198,1.0,3.0,80,0.00,,---,0.00,95.00,VWS V14.00,2013-06-07 15:42:00,
2013-06-07 10:47:00,68.6,62.2,29.72,SSW,198,1.0,4.0,80,0.00,,---,0.00,107.00,VWS V14.00,2013-06-07 15:47:00,
2013-06-07 10:50:00,68.6,62.2,29.71,SSW,198,0.0,4.0,80,0.00,,SKC,0.00,120.00,VWS V14.01,2013-06-07 15:50:00,
2013-06-07 10:52:00,68.6,62.2,29.71,SSW,198,1.0,1.0,80,0.00,,---,0.00,123.00,VWS V14.00,2013-06-07 15:52:00,
2013-06-07 10:57:00,68.6,62.2,29.70,SSW,198,0.0,2.0,80,0.00,,---,0.00,139.00,VWS V14.00,2013-06-07 15:57:00,
2013-06-07 11:00:00,68.8,62.4,29.70,SSW,198,0.0,3.0,80,0.00,,SKC,0.00,158.00,VWS V14.01,2013-06-07 16:00:00,
2013-06-07 11:02:00,68.8,62.4,29.70,SSW,198,0.0,0.0,80,0.00,,---,0.00,163.00,VWS V14.00,2013-06-07 16:02:00,
2013-06-07 11:07:00,69.0,62.2,29.69,SSW,198,3.0,4.0,79,0.00,,---,0.00,188.00,VWS V14.00,2013-06-07 16:07:00,
2013-06-07 11:10:00,69.2,62.1,29.69,SSW,198,0.0,7.0,78,0.00,,SKC,0.00,207.00,VWS V14.01,2013-06-07 16:10:00,
2013-06-07 11:12:00,69.2,62.1,29.69,SSW,198,2.0,6.0,78,0.00,,---,0.00,211.00,VWS V14.00,2013-06-07 16:12:00,
2013-06-07 11:17:00,69.4,61.9,29.68,SSW,198,2.0,7.0,77,0.00,,---,0.00,232.00,VWS V14.00,2013-06-07 16:17:00,
2013-06-07 11:20:00,69.6,62.1,29.68,SSW,198,7.0,10.0,77,0.00,,SKC,0.00,246.00,VWS V14.01,2013-06-07 16:20:00,
2013-06-07 11:22:00,69.6,62.1,29.68,SSW,198,7.0,8.0,77,0.00,,---,0.00,248.00,VWS V14.00,2013-06-07 16:22:00,
2013-06-07 11:27:00,69.7,62.2,29.67,SSW,198,3.0,9.0,77,0.00,,---,0.00,253.00,VWS V14.00,2013-06-07 16:27:00,
2013-06-07 11:30:00,69.9,62.4,29.68,SSW,198,4.0,9.0,77,0.00,,SKC,0.00,251.00,VWS V14.01,2013-06-07 16:30:00,
2013-06-07 11:32:00,69.9,62.4,29.68,SSW,198,3.0,3.0,77,0.00,,---,0.00,250.00,VWS V14.00,2013-06-07 16:32:00,
2013-06-07 11:37:00,70.1,62.2,29.68,SSW,198,3.0,9.0,76,0.00,,---,0.00,237.00,VWS V14.00,2013-06-07 16:37:00,
2013-06-07 11:40:00,70.2,62.3,29.67,SSW,198,7.0,10.0,76,0.00,,SKC,0.00,232.00,VWS V14.01,2013-06-07 16:40:00,
2013-06-07 11:42:00,70.2,62.3,29.67,SSW,198,4.0,8.0,76,0.00,,---,0.00,232.00,VWS V14.00,2013-06-07 16:42:00,
2013-06-07 11:47:00,70.3,62.4,29.67,SSW,194,5.0,9.0,76,0.00,,---,0.00,232.00,VWS V14.00,2013-06-07 16:47:00,
2013-06-07 11:50:00,70.4,62.5,29.67,SSW,194,4.0,9.0,76,0.00,,SKC,0.00,234.00,VWS V14.01,2013-06-07 16:50:00,
2013-06-07 11:52:00,70.4,62.1,29.67,SSW,194,3.0,8.0,75,0.00,,---,0.00,236.00,VWS V14.00,2013-06-07 16:52:00,
2013-06-07 11:57:00,70.5,62.2,29.68,SSW,194,3.0,9.0,75,0.00,,---,0.00,246.00,VWS V14.00,2013-06-07 16:57:00,
2013-06-07 12:00:00,70.8,62.5,29.68,SSW,194,3.0,9.0,75,0.00,,SKC,0.00,271.00,VWS V14.01,2013-06-07 17:00:00,
2013-06-07 12:02:00,70.8,62.5,29.68,SSW,194,5.0,6.0,75,0.00,,---,0.00,276.00,VWS V14.00,2013-06-07 17:02:00,
2013-06-07 12:07:00,71.1,62.8,29.69,SSW,194,3.0,7.0,75,0.00,,---,0.00,313.00,VWS V14.00,2013-06-07 17:07:00,
2013-06-07 12:10:00,71.3,61.8,29.69,SSW,194,2.0,7.0,72,0.00,,SKC,0.00,360.00,VWS V14.01,2013-06-07 17:10:00,
2013-06-07 12:12:00,71.3,61.8,29.70,SSW,194,1.0,5.0,72,0.00,,---,0.00,371.00,VWS V14.00,2013-06-07 17:12:00,
2013-06-07 12:17:00,71.7,62.6,29.70,SSW,194,0.0,6.0,73,0.00,,---,0.00,434.00,VWS V14.00,2013-06-07 17:17:00,
2013-06-07 12:20:00,72.1,62.2,29.70,SSW,194,5.0,6.0,71,0.00,,SKC,0.00,445.00,VWS V14.01,2013-06-07 17:20:00,
2013-06-07 12:22:00,72.1,62.2,29.70,SSW,194,2.0,5.0,71,0.00,,---,0.00,445.00,VWS V14.00,2013-06-07 17:22:00,
2013-06-07 12:27:00,72.5,62.2,29.71,SSW,194,1.0,5.0,70,0.00,,---,0.00,436.00,VWS V14.00,2013-06-07 17:27:00,
2013-06-07 12:30:00,72.9,61.7,29.72,SSW,194,2.0,5.0,68,0.00,,SKC,0.00,434.00,VWS V14.01,2013-06-07 17:30:00,
2013-06-07 12:32:00,72.9,61.7,29.71,SSW,194,0.0,2.0,68,0.00,,---,0.00,432.00,VWS V14.00,2013-06-07 17:32:00,
2013-06-07 12:37:00,73.1,61.5,29.71,SSW,194,0.0,4.0,67,0.00,,---,0.00,424.00,VWS V14.00,2013-06-07 17:37:00,
2013-06-07 12:40:00,73.3,61.7,29.71,SSW,194,0.0,4.0,67,0.00,,SKC,0.00,418.00,VWS V14.01,2013-06-07 17:40:00,
2013-06-07 12:42:00,73.4,61.8,29.71,SSW,194,1.0,2.0,67,0.00,,---,0.00,417.00,VWS V14.00,2013-06-07 17:42:00,
2013-06-07 12:47:00,73.9,61.8,29.72,SSW,194,0.0,4.0,66,0.00,,---,0.00,417.00,VWS V14.00,2013-06-07 17:47:00,
2013-06-07 12:50:00,74.3,61.8,29.72,SSW,194,0.0,4.0,65,0.00,,SKC,0.00,434.00,VWS V14.01,2013-06-07 17:50:00,
2013-06-07 12:52:00,74.3,61.8,29.72,SSW,194,0.0,2.0,65,0.00,,---,0.00,439.00,VWS V14.00,2013-06-07 17:52:00,
2013-06-07 12:57:00,74.6,61.6,29.72,SSW,194,3.0,5.0,64,0.00,,---,0.00,438.00,VWS V14.00,2013-06-07 17:57:00,
2013-06-07 13:00:00,74.8,61.4,29.73,SSW,194,2.0,6.0,63,0.00,,SKC,0.00,413.00,VWS V14.01,2013-06-07 18:00:00,
2013-06-07 13:02:00,74.8,61.4,29.73,SSW,194,4.0,6.0,63,0.00,,---,0.00,413.00,VWS V14.00,2013-06-07 18:02:00,
2013-06-07 13:07:00,74.9,61.5,29.73,SSW,194,3.0,6.0,63,0.00,,---,0.00,427.00,VWS V14.00,2013-06-07 18:07:00,
2013-06-07 13:10:00,75.0,61.6,29.73,SSW,194,1.0,6.0,63,0.00,,SKC,0.00,445.00,VWS V14.01,2013-06-07 18:10:00,
2013-06-07 13:12:00,75.0,61.6,29.73,SSW,194,2.0,5.0,63,0.00,,---,0.00,466.00,VWS V14.00,2013-06-07 18:12:00,
2013-06-07 13:17:00,75.0,61.1,29.73,SSW,194,3.0,8.0,62,0.00,,---,0.00,489.00,VWS V14.00,2013-06-07 18:17:00,
2013-06-07 13:20:00,75.2,61.3,29.73,SSW,194,1.0,8.0,62,0.00,,SKC,0.00,508.00,VWS V14.01,2013-06-07 18:20:00,
2013-06-07 13:22:00,75.2,60.8,29.73,SSW,194,3.0,6.0,61,0.00,,---,0.00,494.00,VWS V14.00,2013-06-07 18:22:00,
2013-06-07 13:28:00,75.3,60.9,29.72,SSW,194,3.0,6.0,61,0.00,,---,0.00,482.00,VWS V14.00,2013-06-07 18:28:00,
2013-06-07 13:30:00,75.4,61.0,29.72,SSW,194,5.0,6.0,61,0.00,,SKC,0.00,483.00,VWS V14.01,2013-06-07 18:30:00,
2013-06-07 13:33:00,75.5,60.7,29.72,SSW,194,3.0,5.0,60,0.00,,---,0.00,482.00,VWS V14.00,2013-06-07 18:33:00,
2013-06-07 13:38:00,75.8,60.5,29.72,SSW,194,0.0,7.0,59,0.00,,---,0.00,501.00,VWS V14.00,2013-06-07 18:38:00,
2013-06-07 13:40:00,76.0,60.7,29.72,SSW,194,2.0,7.0,59,0.00,,SKC,0.00,499.00,VWS V14.01,2013-06-07 18:40:00,
2013-06-07 13:43:00,76.1,60.8,29.72,SSW,194,4.0,4.0,59,0.00,,---,0.00,496.00,VWS V14.00,2013-06-07 18:43:00,
2013-06-07 13:48:00,76.2,60.4,29.72,SSW,194,5.0,7.0,58,0.00,,---,0.00,475.00,VWS V14.00,2013-06-07 18:48:00,
2013-06-07 13:50:00,76.4,60.5,29.71,SSW,194,3.0,7.0,58,0.00,,SKC,0.00,464.00,VWS V14.01,2013-06-07 18:50:00,
2013-06-07 13:53:00,76.5,60.2,29.71,SSW,194,3.0,3.0,57,0.00,,---,0.00,466.00,VWS V14.00,2013-06-07 18:53:00,
2013-06-07 13:58:00,76.7,60.3,29.71,SSW,194,6.0,7.0,57,0.00,,---,0.00,471.00,VWS V14.00,2013-06-07 18:58:00,
2013-06-07 14:00:00,76.7,59.8,29.70,SSW,194,1.0,7.0,56,0.00,,SKC,0.00,464.00,VWS V14.01,2013-06-07 19:00:00,
2013-06-07 14:02:00,76.7,59.8,29.70,SSW,194,2.0,4.0,56,0.00,,---,0.00,457.00,VWS V14.00,2013-06-07 19:02:00,
2013-06-07 14:08:00,76.9,59.5,29.70,SSW,194,1.0,5.0,55,0.00,,---,0.00,450.00,VWS V14.00,2013-06-07 19:08:00,
2013-06-07 14:10:00,77.2,59.8,29.70,SSW,194,0.0,5.0,55,0.00,,SKC,0.00,439.00,VWS V14.01,2013-06-07 19:10:00,
2013-06-07 14:13:00,77.3,59.4,29.70,SSW,194,3.0,4.0,54,0.00,,---,0.00,438.00,VWS V14.00,2013-06-07 19:13:00,
2013-06-07 14:18:00,77.5,59.0,29.70,SSW,194,1.0,4.0,53,0.00,,---,0.00,415.00,VWS V14.00,2013-06-07 19:18:00,
2013-06-07 14:20:00,77.6,60.2,29.70,SSW,194,0.0,4.0,55,0.00,,SKC,0.00,410.00,VWS V14.01,2013-06-07 19:20:00,
2013-06-07 14:23:00,77.6,60.2,29.70,SSW,194,0.0,1.0,55,0.00,,---,0.00,411.00,VWS V14.00,2013-06-07 19:23:00,
2013-06-07 14:28:00,77.8,60.9,29.69,SSW,194,3.0,6.0,56,0.00,,---,0.00,417.00,VWS V14.00,2013-06-07 19:28:00,
2013-06-07 14:30:00,77.8,60.9,29.69,SSW,194,3.0,6.0,56,0.00,,SKC,0.00,406.00,VWS V14.01,2013-06-07 19:30:00,
2013-06-07 14:33:00,77.7,60.3,29.69,SSW,194,4.0,4.0,55,0.00,,---,0.00,403.00,VWS V14.00,2013-06-07 19:33:00,
2013-06-07 14:38:00,77.6,59.7,29.69,SSW,194,3.0,6.0,54,0.00,,---,0.00,397.00,VWS V14.00,2013-06-07 19:38:00,
2013-06-07 14:40:00,77.5,60.1,29.68,SSW,194,0.0,6.0,55,0.00,,SKC,0.00,397.00,VWS V14.01,2013-06-07 19:40:00,
2013-06-07 14:43:00,77.4,60.5,29.69,SSW,194,3.0,5.0,56,0.00,,---,0.00,397.00,VWS V14.00,2013-06-07 19:43:00,
2013-06-07 14:48:00,77.4,59.5,29.68,SSW,194,4.0,6.0,54,0.00,,---,0.00,396.00,VWS V14.00,2013-06-07 19:48:00,
2013-06-07 14:50:00,77.4,59.5,29.68,SSW,194,4.0,7.0,54,0.00,,SKC,0.00,396.00,VWS V14.01,2013-06-07 19:50:00,
2013-06-07 14:53:00,77.4,59.5,29.68,SSW,194,0.0,6.0,54,0.00,,---,0.00,396.00,VWS V14.00,2013-06-07 19:53:00,
2013-06-07 14:58:00,77.4,59.5,29.68,SSW,194,4.0,7.0,54,0.00,,---,0.00,394.00,VWS V14.00,2013-06-07 19:58:00,
2013-06-07 15:00:00,77.3,59.4,29.68,SSW,194,4.0,7.0,54,0.00,,SKC,0.00,394.00,VWS V14.01,2013-06-07 20:00:00,
2013-06-07 15:03:00,77.3,59.4,29.68,SSW,194,3.0,6.0,54,0.00,,---,0.00,392.00,VWS V14.00,2013-06-07 20:03:00,
2013-06-07 15:08:00,77.4,59.5,29.68,SSW,194,2.0,7.0,54,0.00,,---,0.00,390.00,VWS V14.00,2013-06-07 20:08:00,
2013-06-07 15:10:00,77.4,59.5,29.68,SSW,194,3.0,7.0,54,0.00,,SKC,0.00,394.00,VWS V14.01,2013-06-07 20:10:00,
2013-06-07 15:13:00,77.4,59.5,29.68,SSW,194,0.0,6.0,54,0.00,,---,0.00,397.00,VWS V14.00,2013-06-07 20:13:00,
2013-06-07 15:19:00,77.6,59.7,29.68,SSW,194,2.0,9.0,54,0.00,,---,0.00,420.00,VWS V14.00,2013-06-07 20:19:00,
2013-06-07 15:20:00,77.7,59.2,29.67,SSW,194,2.0,9.0,53,0.00,,SKC,0.00,439.00,VWS V14.01,2013-06-07 20:20:00,
2013-06-07 15:24:00,77.8,59.8,29.67,SSW,194,5.0,10.0,54,0.00,,---,0.00,445.00,VWS V14.00,2013-06-07 20:24:00,
2013-06-07 15:29:00,77.8,59.3,29.67,SSW,194,2.0,10.0,53,0.00,,---,0.00,471.00,VWS V14.00,2013-06-07 20:29:00,
2013-06-07 15:30:00,77.9,59.4,29.67,SSW,194,0.0,10.0,53,0.00,,SKC,0.00,485.00,VWS V14.01,2013-06-07 20:30:00,
2013-06-07 15:34:00,78.0,59.5,29.67,SSW,194,5.0,5.0,53,0.00,,---,0.00,494.00,VWS V14.00,2013-06-07 20:34:00,
2013-06-07 15:39:00,78.1,59.6,29.67,SSW,194,6.0,8.0,53,0.00,,---,0.00,478.00,VWS V14.00,2013-06-07 20:39:00,
2013-06-07 15:40:00,78.3,59.8,29.67,SSW,194,6.0,8.0,53,0.00,,SKC,0.00,492.00,VWS V14.01,2013-06-07 20:40:00,
2013-06-07 15:44:00,78.4,59.3,29.67,SSW,194,4.0,9.0,52,0.00,,---,0.00,497.00,VWS V14.00,2013-06-07 20:44:00,
2013-06-07 15:49:00,78.5,60.0,29.67,SSW,194,1.0,9.0,53,0.00,,---,0.00,499.00,VWS V14.00,2013-06-07 20:49:00,
2013-06-07 15:50:00,78.7,60.2,29.67,SSW,194,0.0,9.0,53,0.00,,SKC,0.00,494.00,VWS V14.01,2013-06-07 20:50:00,
2013-06-07 15:54:00,78.9,60.3,29.67,SSW,194,3.0,8.0,53,0.00,,---,0.00,503.00,VWS V14.00,2013-06-07 20:54:00,
2013-06-07 15:59:00,79.2,60.1,29.67,SSW,194,4.0,8.0,52,0.00,,---,0.00,519.00,VWS V14.00,2013-06-07 20:59:00,
2013-06-07 16:00:00,79.4,59.7,29.66,SSW,194,4.0,8.0,51,0.00,,SKC,0.00,529.00,VWS V14.01,2013-06-07 21:00:00,
2013-06-07 16:04:00,79.4,59.7,29.67,SSW,194,3.0,6.0,51,0.00,,---,0.00,543.00,VWS V14.00,2013-06-07 21:04:00,
2013-06-07 16:09:00,79.8,59.5,29.66,SSW,194,7.0,7.0,50,0.00,,---,0.00,545.00,VWS V14.00,2013-06-07 21:09:00,
2013-06-07 16:10:00,79.9,59.6,29.66,SSW,194,1.0,7.0,50,0.00,,SKC,0.00,510.00,VWS V14.01,2013-06-07 21:10:00,
2013-06-07 16:14:00,80.0,59.7,29.66,SSW,194,3.0,6.0,50,0.00,,---,0.00,482.00,VWS V14.00,2013-06-07 21:14:00,
2013-06-07 16:19:00,80.1,59.8,29.66,SSW,194,3.0,6.0,50,0.00,,---,0.00,473.00,VWS V14.00,2013-06-07 21:19:00,
2013-06-07 16:20:00,80.2,59.9,29.66,SSW,194,5.0,6.0,50,0.00,,SKC,0.00,492.00,VWS V14.01,2013-06-07 21:20:00,
2013-06-07 16:24:00,80.3,59.4,29.66,SSW,194,2.0,5.0,49,0.00,,---,0.00,489.00,VWS V14.00,2013-06-07 21:24:00,
2013-06-07 16:29:00,80.5,60.2,29.65,SSW,194,2.0,7.0,50,0.00,,---,0.00,476.00,VWS V14.00,2013-06-07 21:29:00,
2013-06-07 16:30:00,80.6,59.7,29.65,SSW,194,1.0,8.0,49,0.00,,SKC,0.00,483.00,VWS V14.01,2013-06-07 21:30:00,
2013-06-07 16:34:00,80.6,59.1,29.65,SSW,194,0.0,8.0,48,0.00,,---,0.00,489.00,VWS V14.00,2013-06-07 21:34:00,
2013-06-07 16:40:00,80.8,59.3,29.65,SSW,194,3.0,8.0,48,0.00,,---,0.00,476.00,VWS V14.00,2013-06-07 21:40:00,
2013-06-07 16:45:00,81.1,59.6,29.65,SSW,194,3.0,4.0,48,0.00,,---,0.00,408.00,VWS V14.00,2013-06-07 21:45:00,
2013-06-07 16:50:00,81.1,59.0,29.64,SSW,194,2.0,5.0,47,0.00,,---,0.00,374.00,VWS V14.00,2013-06-07 21:50:00,
2013-06-07 16:55:00,80.9,58.8,29.64,SSW,194,0.0,4.0,47,0.00,,---,0.00,350.00,VWS V14.00,2013-06-07 21:55:00,
2013-06-07 17:00:00,81.0,58.9,29.63,SSW,194,6.0,6.0,47,0.00,,---,0.00,336.00,VWS V14.00,2013-06-07 22:00:00,
2013-06-07 17:05:00,80.9,58.8,29.64,SSW,194,0.0,5.0,47,0.00,,---,0.00,336.00,VWS V14.00,2013-06-07 22:05:00,
2013-06-07 17:10:00,80.9,58.8,29.64,SSW,194,3.0,5.0,47,0.00,,---,0.00,388.00,VWS V14.00,2013-06-07 22:10:00,
2013-06-07 17:15:00,81.0,58.3,29.64,SSW,194,3.0,7.0,46,0.00,,---,0.00,434.00,VWS V14.00,2013-06-07 22:15:00,
2013-06-07 17:20:00,81.1,59.0,29.64,SSW,194,0.0,7.0,47,0.00,,---,0.00,469.00,VWS V14.00,2013-06-07 22:20:00,
2013-06-07 17:25:00,81.3,59.2,29.64,SSW,194,0.0,7.0,47,0.00,,---,0.00,517.00,VWS V14.00,2013-06-07 22:25:00,
2013-06-07 17:30:00,81.7,58.9,29.63,SSW,194,3.0,7.0,46,0.00,,---,0.00,689.00,VWS V14.00,2013-06-07 22:30:00,
2013-06-07 17:35:00,82.2,59.4,29.63,SSW,194,5.0,7.0,46,0.00,,---,0.00,513.00,VWS V14.00,2013-06-07 22:35:00,
2013-06-07 17:40:00,82.5,59.0,29.63,SSW,194,1.0,7.0,45,0.00,,---,0.00,499.00,VWS V14.00,2013-06-07 22:40:00,
2013-06-07 17:46:00,82.5,58.4,29.63,SSW,194,0.0,4.0,44,0.00,,---,0.00,374.00,VWS V14.00,2013-06-07 22:46:00,
2013-06-07 17:50:00,82.7,59.2,29.61,SSW,194,0.0,4.0,45,0.00,,SKC,0.00,325.00,VWS V14.01,2013-06-07 22:50:00,
2013-06-07 17:51:00,82.7,59.2,29.61,SSW,194,0.0,4.0,45,0.00,,---,0.00,325.00,VWS V14.00,2013-06-07 22:51:00,
2013-06-07 17:56:00,82.9,56.8,29.62,SSW,194,3.0,5.0,41,0.00,,---,0.00,366.00,VWS V14.00,2013-06-07 22:56:00,
2013-06-07 18:00:00,83.0,55.5,29.61,SSW,194,3.0,5.0,39,0.00,,SKC,0.00,408.00,VWS V14.01,2013-06-07 23:00:00,
2013-06-07 18:01:00,83.0,55.5,29.61,SSW,194,4.0,5.0,39,0.00,,---,0.00,371.00,VWS V14.00,2013-06-07 23:01:00,
2013-06-07 18:06:00,83.1,54.9,29.61,SSW,194,4.0,6.0,38,0.00,,---,0.00,374.00,VWS V14.00,2013-06-07 23:06:00,
2013-06-07 18:10:00,83.0,55.5,29.61,SSW,194,6.0,8.0,39,0.00,,SKC,0.00,399.00,VWS V14.01,2013-06-07 23:10:00,
2013-06-07 18:11:00,83.0,55.5,29.61,SSW,194,8.0,8.0,39,0.00,,---,0.00,413.00,VWS V14.00,2013-06-07 23:11:00,
2013-06-07 18:16:00,82.9,55.4,29.60,SSW,194,5.0,7.0,39,0.00,,---,0.00,420.00,VWS V14.00,2013-06-07 23:16:00,
2013-06-07 18:20:00,82.9,54.7,29.61,SSW,194,3.0,8.0,38,0.00,,SKC,0.00,371.00,VWS V14.01,2013-06-07 23:20:00,
2013-06-07 18:21:00,82.9,54.7,29.61,SSW,194,5.0,8.0,38,0.00,,---,0.00,371.00,VWS V14.00,2013-06-07 23:21:00,
2013-06-07 18:26:00,82.8,54.6,29.60,SSW,194,3.0,7.0,38,0.00,,---,0.00,420.00,VWS V14.00,2013-06-07 23:26:00,
2013-06-07 18:30:00,82.8,53.9,29.61,SSW,194,4.0,10.0,37,0.00,,SKC,0.00,468.00,VWS V14.01,2013-06-07 23:30:00,
2013-06-07 18:31:00,82.8,53.9,29.61,SSW,194,4.0,10.0,37,0.00,,---,0.00,468.00,VWS V14.00,2013-06-07 23:31:00,
2013-06-07 18:36:00,82.9,53.2,29.61,SSW,194,4.0,9.0,36,0.00,,---,0.00,403.00,VWS V14.00,2013-06-07 23:36:00,
2013-06-07 18:40:00,83.1,52.6,29.61,SSW,194,9.0,10.0,35,0.00,,SKC,0.00,424.00,VWS V14.01,2013-06-07 23:40:00,
2013-06-07 18:41:00,83.1,52.6,29.61,SSW,194,9.0,10.0,35,0.00,,---,0.00,424.00,VWS V14.00,2013-06-07 23:41:00,
2013-06-07 18:47:00,83.1,52.6,29.61,SSW,194,6.0,9.0,35,0.00,,---,0.00,424.00,VWS V14.00,2013-06-07 23:47:00,
2013-06-07 18:50:00,83.1,53.4,29.61,SSW,194,6.0,9.0,36,0.00,,SKC,0.00,394.00,VWS V14.01,2013-06-07 23:50:00,
2013-06-07 18:52:00,83.1,52.6,29.61,SSW,194,10.0,10.0,35,0.00,,---,0.00,394.00,VWS V14.00,2013-06-07 23:52:00,
2013-06-07 18:57:00,83.2,52.7,29.61,South,169,5.0,11.0,35,0.00,,---,0.00,364.00,VWS V14.00,2013-06-07 23:57:00,
2013-06-07 19:00:00,83.1,53.4,29.61,SSE,168,9.0,11.0,36,0.00,,SKC,0.00,338.00,VWS V14.01,2013-06-08 00:00:00,
2013-06-07 19:02:00,83.1,52.6,29.61,SSE,168,2.0,10.0,35,0.00,,---,0.00,334.00,VWS V14.00,2013-06-08 00:02:00,
2013-06-07 19:07:00,83.0,52.6,29.61,SSE,167,2.0,12.0,35,0.00,,---,0.00,301.00,VWS V14.00,2013-06-08 00:07:00,
2013-06-07 19:10:00,82.9,53.2,29.61,SSE,167,6.0,12.0,36,0.00,,SKC,0.00,278.00,VWS V14.01,2013-06-08 00:10:00,
2013-06-07 19:12:00,82.9,53.2,29.60,SSE,167,6.0,8.0,36,0.00,,---,0.00,274.00,VWS V14.00,2013-06-08 00:12:00,
2013-06-07 19:17:00,82.8,53.2,29.61,SSE,167,8.0,9.0,36,0.00,,---,0.00,251.00,VWS V14.00,2013-06-08 00:17:00,
2013-06-07 19:20:00,82.6,53.0,29.61,SSE,167,5.0,9.0,36,0.00,,SKC,0.00,234.00,VWS V14.01,2013-06-08 00:20:00,
2013-06-07 19:22:00,82.5,52.9,29.61,SSE,167,6.0,8.0,36,0.00,,---,0.00,229.00,VWS V14.00,2013-06-08 00:22:00,
2013-06-07 19:28:00,82.4,52.8,29.61,SSE,167,2.0,9.0,36,0.00,,---,0.00,204.00,VWS V14.00,2013-06-08 00:28:00,
2013-06-07 19:30:00,82.2,52.6,29.61,SSE,167,6.0,9.0,36,0.00,,SKC,0.00,188.00,VWS V14.01,2013-06-08 00:30:00,
2013-06-07 19:33:00,82.2,52.6,29.61,SSE,167,5.0,10.0,36,0.00,,---,0.00,179.00,VWS V14.00,2013-06-08 00:33:00,
2013-06-07 19:38:00,81.9,53.1,29.61,SSE,167,0.0,10.0,37,0.00,,---,0.00,158.00,VWS V14.00,2013-06-08 00:38:00,
2013-06-07 19:40:00,81.7,52.9,29.61,SSE,167,5.0,10.0,37,0.00,,SKC,0.00,141.00,VWS V14.01,2013-06-08 00:40:00,
2013-06-07 19:43:00,81.6,52.8,29.61,SSE,167,1.0,6.0,37,0.00,,---,0.00,135.00,VWS V14.00,2013-06-08 00:43:00,
2013-06-07 19:48:00,81.3,52.6,29.61,SSE,167,6.0,7.0,37,0.00,,---,0.00,114.00,VWS V14.00,2013-06-08 00:48:00,
2013-06-07 19:50:00,81.0,53.0,29.62,SSE,167,2.0,7.0,38,0.00,,SKC,0.00,97.00,VWS V14.01,2013-06-08 00:50:00,
2013-06-07 19:53:00,81.0,53.0,29.62,SSE,167,4.0,5.0,38,0.00,,---,0.00,95.00,VWS V14.00,2013-06-08 00:53:00,
2013-06-07 19:58:00,80.7,52.8,29.62,SSE,167,0.0,7.0,38,0.00,,---,0.00,76.00,VWS V14.00,2013-06-08 00:58:00,
2013-06-07 20:00:00,80.6,53.4,29.62,SSE,167,0.0,7.0,39,0.00,,SKC,0.00,63.00,VWS V14.01,2013-06-08 01:00:00,
2013-06-07 20:03:00,80.6,53.4,29.62,SSE,167,4.0,4.0,39,0.00,,---,0.00,60.00,VWS V14.00,2013-06-08 01:03:00,
2013-06-07 20:08:00,80.3,53.1,29.62,SSE,167,0.0,6.0,39,0.00,,---,0.00,46.00,VWS V14.00,2013-06-08 01:08:00,
2013-06-07 20:10:00,80.1,52.9,29.62,SSE,167,2.0,7.0,39,0.00,,SKC,0.00,39.00,VWS V14.01,2013-06-08 01:10:00,
2013-06-07 20:13:00,80.0,52.8,29.62,SSE,167,4.0,8.0,39,0.00,,---,0.00,33.00,VWS V14.00,2013-06-08 01:13:00,
2013-06-07 20:18:00,79.7,53.3,29.63,SSE,167,4.0,8.0,40,0.00,,---,0.00,25.00,VWS V14.00,2013-06-08 01:18:00,
2013-06-07 20:20:00,79.4,53.0,29.63,SSE,167,5.0,8.0,40,0.00,,SKC,0.00,19.00,VWS V14.01,2013-06-08 01:20:00,
2013-06-07 20:23:00,79.3,52.9,29.63,SSE,167,2.0,6.0,40,0.00,,---,0.00,16.00,VWS V14.00,2013-06-08 01:23:00,
2013-06-07 20:28:00,78.9,53.2,29.63,SSE,167,1.0,6.0,41,0.00,,---,0.00,7.00,VWS V14.00,2013-06-08 01:28:00,
2013-06-07 20:30:00,78.5,52.9,29.63,SSE,167,4.0,6.0,41,0.00,,SKC,0.00,5.00,VWS V14.01,2013-06-08 01:30:00,
2013-06-07 20:33:00,78.4,52.8,29.63,SSE,167,4.0,5.0,41,0.00,,---,0.00,5.00,VWS V14.00,2013-06-08 01:33:00,
2013-06-07 20:38:00,77.9,53.0,29.63,SSE,167,6.0,6.0,42,0.00,,---,0.00,0.00,VWS V14.00,2013-06-08 01:38:00,
2013-06-07 20:40:00,77.7,52.8,29.62,SSE,167,1.0,6.0,42,0.00,,SKC,0.00,0.00,VWS V14.01,2013-06-08 01:40:00,
2013-06-07 20:43:00,77.5,52.6,29.63,SSE,167,1.0,2.0,42,0.00,,---,0.00,0.00,VWS V14.00,2013-06-08 01:43:00,
2013-06-07 20:48:00,77.0,52.8,29.63,SSE,167,4.0,5.0,43,0.00,,---,0.00,0.00,VWS V14.00,2013-06-08 01:48:00,
2013-06-07 20:50:00,76.7,52.5,29.63,SSE,167,0.0,5.0,43,0.00,,SKC,0.00,0.00,VWS V14.01,2013-06-08 01:50:00,
2013-06-07 20:53:00,76.5,52.4,29.63,SSE,167,4.0,5.0,43,0.00,,---,0.00,0.00,VWS V14.00,2013-06-08 01:53:00,
2013-06-07 20:58:00,76.0,52.5,29.63,SSE,167,4.0,5.0,44,0.00,,---,0.00,0.00,VWS V14.00,2013-06-08 01:58:00,
2013-06-07 21:00:00,75.8,52.4,29.63,SSE,167,0.0,5.0,44,0.00,,SKC,0.00,0.00,VWS V14.01,2013-06-08 02:00:00,
2013-06-07 21:03:00,75.7,53.5,29.63,SSE,167,1.0,5.0,46,0.00,,---,0.00,0.00,VWS V14.00,2013-06-08 02:03:00,
2013-06-07 21:08:00,75.5,53.9,29.63,SSE,167,0.0,5.0,47,0.00,,---,0.00,0.00,VWS V14.00,2013-06-08 02:08:00,
2013-06-07 21:10:00,75.3,54.3,29.63,SSE,167,0.0,5.0,48,0.00,,SKC,0.00,0.00,VWS V14.01,2013-06-08 02:10:00,
2013-06-07 21:14:00,75.2,54.8,29.63,SSE,167,0.0,0.0,49,0.00,,---,0.00,0.00,VWS V14.00,2013-06-08 02:14:00,
2013-06-07 21:19:00,74.9,55.6,29.64,SSE,167,1.0,4.0,51,0.00,,---,0.00,0.00,VWS V14.00,2013-06-08 02:19:00,
2013-06-07 21:20:00,74.8,55.5,29.63,SSE,167,0.0,4.0,51,0.00,,SKC,0.00,0.00,VWS V14.01,2013-06-08 02:20:00,
2013-06-07 21:24:00,74.6,55.8,29.64,SSE,167,1.0,2.0,52,0.00,,---,0.00,0.00,VWS V14.00,2013-06-08 02:24:00,
2013-06-07 21:29:00,74.3,56.1,29.64,SSE,167,1.0,5.0,53,0.00,,---,0.00,0.00,VWS V14.00,2013-06-08 02:29:00,
2013-06-07 21:30:00,74.2,56.0,29.64,SSE,167,1.0,5.0,53,0.00,,SKC,0.00,0.00,VWS V14.01,2013-06-08 02:30:00,
2013-06-07 21:34:00,74.0,56.3,29.64,SSE,167,1.0,4.0,54,0.00,,---,0.00,0.00,VWS V14.00,2013-06-08 02:34:00,
2013-06-07 21:39:00,73.8,56.6,29.64,SSE,167,0.0,4.0,55,0.00,,---,0.00,0.00,VWS V14.00,2013-06-08 02:39:00,
2013-06-07 21:40:00,73.7,57.0,29.64,SSE,167,0.0,4.0,56,0.00,,SKC,0.00,0.00,VWS V14.01,2013-06-08 02:40:00,
2013-06-07 21:44:00,73.6,57.0,29.65,SSE,167,0.0,1.0,56,0.00,,---,0.00,0.00,VWS V14.00,2013-06-08 02:44:00,
2013-06-07 21:49:00,73.4,57.3,29.65,SSE,167,1.0,2.0,57,0.00,,---,0.00,0.00,VWS V14.00,2013-06-08 02:49:00,
2013-06-07 21:50:00,73.3,57.2,29.66,SSE,167,0.0,2.0,57,0.00,,SKC,0.00,0.00,VWS V14.01,2013-06-08 02:50:00,
2013-06-07 21:54:00,73.2,57.5,29.66,SSE,167,0.0,1.0,58,0.00,,---,0.00,0.00,VWS V14.00,2013-06-08 02:54:00,
2013-06-07 21:59:00,73.1,57.5,29.66,SSE,167,2.0,2.0,58,0.00,,---,0.00,0.00,VWS V14.00,2013-06-08 02:59:00,
2013-06-07 22:00:00,73.0,57.8,29.66,SSE,167,0.0,4.0,59,0.00,,SKC,0.00,0.00,VWS V14.01,2013-06-08 03:00:00,
2013-06-07 22:04:00,72.9,57.8,29.66,SSE,167,1.0,2.0,59,0.00,,---,0.00,0.00,VWS V14.00,2013-06-08 03:04:00,
2013-06-07 22:09:00,72.8,57.7,29.66,SSE,167,0.0,2.0,59,0.00,,---,0.00,0.00,VWS V14.00,2013-06-08 03:09:00,
2013-06-07 22:10:00,72.7,58.0,29.66,SSE,167,0.0,2.0,60,0.00,,SKC,0.00,0.00,VWS V14.01,2013-06-08 03:10:00,
2013-06-07 22:15:00,72.6,57.9,29.66,SSE,167,0.0,2.0,60,0.00,,---,0.00,0.00,VWS V14.00,2013-06-08 03:15:00,
2013-06-07 22:20:00,72.5,57.8,29.66,SSE,167,0.0,2.0,60,0.00,,---,0.00,0.00,VWS V14.00,2013-06-08 03:20:00,
2013-06-07 22:25:00,72.4,57.8,29.66,SSE,167,0.0,1.0,60,0.00,,---,0.00,0.00,VWS V14.00,2013-06-08 03:25:00,
2013-06-07 22:30:00,72.2,57.6,29.66,SSE,167,0.0,2.0,60,0.00,,---,0.00,0.00,VWS V14.00,2013-06-08 03:30:00,
2013-06-07 22:35:00,72.1,57.5,29.66,SSE,167,0.0,1.0,60,0.00,,---,0.00,0.00,VWS V14.00,2013-06-08 03:35:00,
2013-06-07 22:40:00,72.0,57.4,29.66,SSE,167,0.0,1.0,60,0.00,,---,0.00,0.00,VWS V14.00,2013-06-08 03:40:00,
2013-06-07 22:45:00,71.8,57.2,29.67,SSE,167,0.0,1.0,60,0.00,,---,0.00,0.00,VWS V14.00,2013-06-08 03:45:00,
2013-06-07 22:50:00,71.7,57.1,29.67,SSE,167,0.0,1.0,60,0.00,,---,0.00,0.00,VWS V14.00,2013-06-08 03:50:00,
2013-06-07 22:55:00,71.6,57.0,29.68,SSE,167,0.0,0.0,60,0.00,,---,0.00,0.00,VWS V14.00,2013-06-08 03:55:00,
2013-06-07 23:00:00,71.5,57.4,29.67,SSE,167,0.0,1.0,61,0.00,,---,0.00,0.00,VWS V14.00,2013-06-08 04:00:00,
2013-06-07 23:01:00,71.5,57.4,29.67,SSE,167,0.0,1.0,61,0.00,,---,0.00,0.00,VWS V14.00,2013-06-08 04:01:00,
2013-06-07 23:02:00,71.4,57.3,29.67,SSE,167,0.0,0.0,61,0.00,,---,0.00,0.00,VWS V14.00,2013-06-08 04:02:00,
2013-06-07 23:07:00,71.3,57.2,29.68,SSE,167,0.0,0.0,61,0.00,,---,0.00,0.00,VWS V14.00,2013-06-08 04:07:00,
2013-06-07 23:10:00,71.3,56.7,29.68,SSE,167,0.0,1.0,60,0.00,,SKC,0.00,0.00,VWS V14.01,2013-06-08 04:10:00,
2013-06-07 23:12:00,71.3,56.7,29.68,SSE,167,0.0,1.0,60,0.00,,---,0.00,0.00,VWS V14.00,2013-06-08 04:12:00,
2013-06-07 23:17:00,71.2,56.6,29.68,SSE,167,1.0,4.0,60,0.00,,---,0.00,0.00,VWS V14.00,2013-06-08 04:17:00,
2013-06-07 23:20:00,71.3,56.7,29.68,SSE,167,0.0,5.0,60,0.00,,SKC,0.00,0.00,VWS V14.01,2013-06-08 04:20:00,
2013-06-07 23:22:00,71.3,56.7,29.68,SSE,167,0.0,0.0,60,0.00,,---,0.00,0.00,VWS V14.00,2013-06-08 04:22:00,
2013-06-07 23:27:00,71.3,56.7,29.68,SSE,167,0.0,1.0,60,0.00,,---,0.00,0.00,VWS V14.00,2013-06-08 04:27:00,
2013-06-07 23:30:00,71.2,56.6,29.68,SSE,167,4.0,4.0,60,0.00,,SKC,0.00,0.00,VWS V14.01,2013-06-08 04:30:00,
2013-06-07 23:32:00,71.2,56.6,29.68,SSE,167,0.0,4.0,60,0.00,,---,0.00,0.00,VWS V14.00,2013-06-08 04:32:00,
2013-06-07 23:37:00,71.1,56.5,29.69,SSE,167,0.0,5.0,60,0.00,,---,0.00,0.00,VWS V14.00,2013-06-08 04:37:00,
2013-06-07 23:40:00,71.1,56.5,29.69,SSE,167,0.0,5.0,60,0.00,,SKC,0.00,0.00,VWS V14.01,2013-06-08 04:40:00,
2013-06-07 23:42:00,71.1,56.5,29.69,SSE,167,2.0,2.0,60,0.00,,---,0.00,0.00,VWS V14.00,2013-06-08 04:42:00,
2013-06-07 23:47:00,71.1,56.5,29.68,SSE,167,2.0,5.0,60,0.00,,---,0.00,0.00,VWS V14.00,2013-06-08 04:47:00,
2013-06-07 23:50:00,70.9,56.3,29.68,SSE,167,2.0,6.0,60,0.00,,SKC,0.00,0.00,VWS V14.01,2013-06-08 04:50:00,
2013-06-07 23:52:00,70.9,56.3,29.68,SSE,167,2.0,6.0,60,0.00,,---,0.00,0.00,VWS V14.00,2013-06-08 04:52:00,
2013-06-07 23:57:00,70.4,56.3,29.68,SSE,167,2.0,5.0,61,0.00,,---,0.00,0.00,VWS V14.00,2013-06-08 04:57:00,